This demonstration page uses our WeatherBlox Daily Observations layout. Learn more.

Left ArrowRight Arrow

44.8408, -93.29828

Hourly Observations for December 3, 2022

Temp ( °F °C ) Dew Point ( °F °C ) Humidity (%) Winds ( mph kmh ) Pressure ( in mb ) Visibility ( mi km ) Precip ( " mm )
12:04 am 00:04 Cloudy 14 -10 7 -13.9 73 73 WNW 20 31 30.13 1020 2 3 0.01 0.13
12:13 am 00:13 Cloudy with Haze 14 -10 6 -14.4 70 70 WNW 17 28 30.13 1020 6 10 0.01 0.13
12:53 am 00:53 Partly Cloudy 13 -10.6 4 -15.6 67 67 WNW 17 28 30.14 1021 10 16 0.01 0.13
1:53 am 01:53 Mostly Clear 11 -11.7 1 -17.2 64 64 WNW 14 22 30.20 1023 10 16 0.00 0.00
2:53 am 02:53 Clear 9 -12.8 0 -17.8 66 66 WNW 16 26 30.26 1025 10 16 0.00 0.00
3:53 am 03:53 Clear 7 -13.9 -2 -18.9 66 66 WNW 14 22 30.30 1026 10 16 0.00 0.00
4:53 am 04:53 Clear 5 -15 -3 -19.4 69 69 WNW 14 22 30.35 1028 10 16 0.00 0.00
5:53 am 05:53 Clear 5 -15 -3 -19.4 69 69 WNW 13 20 30.37 1029 10 16 0.00 0.00
6:53 am 06:53 Clear 4 -15.6 -4 -20 69 69 NW 9 15 30.41 1030 10 16 0.00 0.00
7:53 am 07:53 Mostly Sunny 5 -15 -3 -19.4 69 69 W 10 17 30.46 1031 10 16 0.00 0.00
8:19 am 08:19 Partly Cloudy 5 -15 -3 -19.4 69 69 WNW 9 15 30.52 1033 10 16 0.00 0.00
8:53 am 08:53 Partly Cloudy 6 -14.4 -2 -18.9 68 68 WNW 12 19 30.47 1032 10 16 0.00 0.00
9:53 am 09:53 Partly Cloudy 8 -13.3 -1 -18.3 66 66 W 14 22 30.50 1033 10 16 0.00 0.00
10:53 am 10:53 Mostly Sunny 9 -12.8 -1 -18.3 63 63 W 8 13 30.50 1033 10 16 0.00 0.00
11:53 am 11:53 Mostly Sunny 11 -11.7 0 -17.8 60 60 WSW 14 22 30.50 1033 10 16 0.00 0.00
12:53 pm 12:53 Sunny 11 -11.7 0 -17.8 60 60 W 12 19 30.48 1032 10 16 0.00 0.00
1:53 pm 13:53 Sunny 12 -11.1 0 -17.8 58 58 WSW 12 19 30.45 1031 10 16 0.00 0.00
2:53 pm 14:53 Mostly Sunny 13 -10.6 1 -17.2 58 58 WSW 9 15 30.43 1030 10 16 0.00 0.00
3:53 pm 15:53 Mostly Sunny 13 -10.6 1 -17.2 58 58 S 9 15 30.41 1030 10 16 0.00 0.00
4:53 pm 16:53 Mostly Clear 12 -11.1 0 -17.8 58 58 S 8 13 30.37 1029 10 16 0.00 0.00
5:53 pm 17:53 Mostly Clear 11 -11.7 1 -17.2 64 64 SSE 6 9 30.35 1028 10 16 0.00 0.00
6:53 pm 18:53 Mostly Clear 12 -11.1 2 -16.7 63 63 SSW 8 13 30.35 1028 10 16 0.00 0.00
7:53 pm 19:53 Clear 10 -12.2 1 -17.2 66 66 SE 6 9 30.33 1027 10 16 0.00 0.00
8:53 pm 20:53 Clear 9 -12.8 1 -17.2 69 69 SE 6 9 30.31 1026 10 16 0.00 0.00
9:53 pm 21:53 Clear 9 -12.8 2 -16.7 72 72 SSE 8 13 30.27 1025 10 16 0.00 0.00
10:53 pm 22:53 Clear 9 -12.8 3 -16.1 76 76 SSE 5 7 30.26 1025 10 16 0.00 0.00
11:53 pm 23:53 Clear 9 -12.8 3 -16.1 76 76 SSE 3 6 30.25 1024 10 16 0.00 0.00

Powered by AerisWeather